Location: Worth Mountain WMA
(34.9569°N, 81.4819°W)
Time: 10:02:25
(UTC-04:00)

Amateur Radio Satellites - All Passes

Search period start: 29 August 2014 09:32
Search period end: 30 August 2014 09:32
Location: Worth Mountain WMA, 34.9569°N, 81.4819°W

Satellite Date Start Highest point End Downlink Frequencies (MHz)
Time Altitude Azimuth
Saudisat 1A 29 Aug 09:41:58 09:45:56 33° 247° (WSW) 09:49:53 436.775 MHz
RS-15 29 Aug 09:45:47 09:56:34 55° 306° (NW) 10:07:14 29.354 - 29.394 USB, Beacon 29.352 USB
KITSAT 1 29 Aug 10:07:10 10:15:18 88° 63° (ENE) 10:23:21 435.175 FM
UKube-1 29 Aug 10:16:55 10:20:42 29° 98° (E) 10:24:29 145.840 MHz, 145.915 MHz
Oscar 11 29 Aug 10:25:03 10:28:32 23° 96° (E) 10:32:00 145.825 FM, Beacon 2401.500 USB
FUNcube-1 29 Aug 10:46:39 10:49:27 16° 94° (E) 10:52:16 145.950 - 145.970 MHz USB
HO-68 29 Aug 11:12:10 11:19:06 56° 290° (WNW) 11:26:02 435.675 MHz FM
ISS 29 Aug 11:23:10 11:26:29 81° 136° (SE) 11:29:48 145.800 FM
UKube-1 29 Aug 11:53:30 11:56:42 20° 292° (WNW) 11:59:53 145.840 MHz, 145.915 MHz
Oscar 11 29 Aug 12:01:02 12:04:38 26° 290° (WNW) 12:08:13 145.825 FM, Beacon 2401.500 USB
KITSAT 1 29 Aug 12:05:20 12:09:35 15° 259° (W) 12:13:50 435.175 FM
RS-15 29 Aug 12:05:51 12:12:10 16° 334° (NNW) 12:18:31 29.354 - 29.394 USB, Beacon 29.352 USB
FUNcube-1 29 Aug 12:21:42 12:25:57 40° 287° (WNW) 12:30:14 145.950 - 145.970 MHz USB
Oscar 19 29 Aug 12:47:01 12:47:34 10° 62° (ENE) 12:48:08 437.125 CW, 437.150 USB
JAS-1B 29 Aug 13:00:25 13:05:25 16° 57° (ENE) 13:10:10 435.800 - 435.900 CW/SSB
ISS 29 Aug 13:01:53 13:03:35 13° 333° (NNW) 13:05:18 145.800 FM
PANSAT 29 Aug 13:09:48 13:12:45 21° 166° (SSE) 13:15:43 not established
Oscar 16 29 Aug 13:17:46 13:21:46 23° 67° (ENE) 13:25:48 437.025 USB, Beacon 2401.1428
Uribyol 2 29 Aug 13:25:06 13:26:42 11° 62° (ENE) 13:28:18 436.500 FM
AO-Echo 29 Aug 13:25:42 13:27:15 11° 64° (ENE) 13:28:47 ?
SO-50 29 Aug 13:29:47 13:34:20 41° 56° (NE) 13:38:55 436.795 FM
AO-27 29 Aug 13:41:33 13:44:45 17° 65° (ENE) 13:47:57 436.795 MHz FM
Gurwin Techsat 1B 29 Aug 14:02:51 14:04:18 11° 62° (ENE) 14:05:46 435.225 FM
MaSat-1 29 Aug 14:06:57 14:11:40 82° 111° (ESE) 14:16:48 437.345 MHz
Oscar 19 29 Aug 14:20:59 14:26:08 85° 257° (WSW) 14:31:20 437.125 CW, 437.150 USB
RS-15 29 Aug 14:27:24 14:31:33 12° 14° (NNE) 14:35:45 29.354 - 29.394 USB, Beacon 29.352 USB
JAS-1B 29 Aug 14:44:45 14:54:35 72° 73° (ENE) 15:03:37 435.800 - 435.900 CW/SSB
PANSAT 29 Aug 14:49:04 14:52:30 31° 179° (S) 14:55:56 not established
ITAMSAT 1 29 Aug 14:49:57 14:55:06 80° 75° (ENE) 15:00:17 435.822 SSB
TMSAT-1 29 Aug 14:52:11 14:56:27 26° 68° (ENE) 15:00:43 436.925 FM
Oscar 16 29 Aug 14:56:11 15:00:53 36° 262° (W) 15:05:37 437.025 USB, Beacon 2401.1428
AO-7 29 Aug 14:56:26 15:00:22 14° 52° (NE) 15:04:17 29.400 - 29.500 MHz
AO-Echo 29 Aug 15:00:19 15:05:25 73° 258° (WSW) 15:10:23 ?
Uribyol 2 29 Aug 15:00:20 15:05:28 76° 257° (WSW) 15:10:39 436.500 FM
SO-50 29 Aug 15:11:09 15:14:36 20° 250° (WSW) 15:18:05 436.795 FM
AO-27 29 Aug 15:18:46 15:23:48 52° 260° (W) 15:28:51 436.795 MHz FM
UOSAT-12 29 Aug 15:37:49 15:42:30 61° 59° (ENE) 15:47:05 437.025 FM, 437.400 FM
Gurwin Techsat 1B 29 Aug 15:38:13 15:43:31 82° 257° (WSW) 15:48:51 435.225 FM
MaSat-1 29 Aug 15:47:18 15:49:23 12° 309° (NW) 15:51:30 437.345 MHz
Uosat F 29 Aug 15:51:34 15:54:45 17° 65° (ENE) 15:57:55 435.120 FM
PANSAT 29 Aug 16:29:09 16:32:16 23° 192° (SSW) 16:35:23 not established
TMSAT-1 29 Aug 16:31:25 16:36:10 34° 263° (W) 16:40:57 436.925 FM
JAS-1B 29 Aug 16:37:39 16:45:21 26° 266° (W) 16:52:43 435.800 - 435.900 CW/SSB
RS-15 29 Aug 16:38:48 16:48:45 36° 46° (NE) 16:58:57 29.354 - 29.394 USB, Beacon 29.352 USB
AO-7 29 Aug 16:43:26 16:51:44 74° 70° (ENE) 17:00:02 29.400 - 29.500 MHz
Oscar 10/S400 29 Aug 16:47:45 17:06:00 32° 148° (SSE) 17:24:29 145.825 - 145.975 CW/USB, Beacon 145.810 USB
Sapphire 29 Aug 17:06:09 17:10:51 32° 108° (ESE) 17:15:35 437.095 MHz 1200 baud AX-25 AFSK
OPAL 29 Aug 17:10:12 17:14:32 26° 98° (E) 17:18:49 ?
UOSAT-12 29 Aug 17:20:19 17:22:03 12° 253° (WSW) 17:23:47 437.025 FM, 437.400 FM
Uosat F 29 Aug 17:28:18 17:33:07 48° 260° (W) 17:37:57 435.120 FM
PCSat 29 Aug 17:35:00 17:40:20 66° 113° (ESE) 17:45:43 145.825 MHz
Hamsat 29 Aug 17:52:44 17:56:09 23° 70° (ENE) 17:59:36 145.90 MHz
ISS 29 Aug 17:55:03 17:57:48 23° 33° (NNE) 18:00:32 145.800 FM
JAS-2 29 Aug 18:33:05 18:39:28 71° 75° (ENE) 18:45:08 435.800 - 435.900 CW/SSB, 435.910 FM
AO-7 29 Aug 18:39:23 18:45:06 20° 266° (W) 18:50:51 29.400 - 29.500 MHz
OPAL 29 Aug 18:48:44 18:53:22 33° 292° (WNW) 18:57:58 ?
Sapphire 29 Aug 18:49:28 18:54:12 31° 304° (NW) 18:58:58 437.095 MHz 1200 baud AX-25 AFSK
RS-15 29 Aug 18:50:46 19:01:43 65° 247° (WSW) 19:13:09 29.354 - 29.394 USB, Beacon 29.352 USB
STRAND 1 29 Aug 18:54:23 18:55:31 11° 91° (E) 18:56:39 ?
PCSat 29 Aug 19:20:49 19:24:13 17° 310° (NW) 19:27:39 145.825 MHz
Hamsat 29 Aug 19:28:27 19:31:58 25° 264° (W) 19:35:32 145.90 MHz
ISS 29 Aug 19:31:34 19:34:32 30° 229° (SW) 19:37:30 145.800 FM
SO-67 29 Aug 19:38:43 19:42:05 51° 76° (ENE) 19:45:28 435.3500 MHz FM
HO-68 29 Aug 19:53:50 19:56:52 13° 56° (NE) 19:59:54 435.675 MHz FM
JAS-2 29 Aug 20:21:48 20:24:47 14° 266° (W) 20:27:39 435.800 - 435.900 CW/SSB, 435.910 FM
STRAND 1 29 Aug 20:30:03 20:35:08 71° 285° (WNW) 20:40:12 ?
UKube-1 29 Aug 21:10:10 21:13:05 18° 68° (ENE) 21:16:00 145.840 MHz, 145.915 MHz
Oscar 11 29 Aug 21:18:34 21:20:30 13° 66° (ENE) 21:22:27 145.825 FM, Beacon 2401.500 USB
HO-68 29 Aug 21:36:19 21:43:27 80° 73° (ENE) 21:50:36 435.675 MHz FM
Saudisat 1A 29 Aug 22:08:54 22:10:06 11° 107° (ESE) 22:11:17 436.775 MHz
KITSAT 1 29 Aug 22:40:08 22:44:48 17° 101° (ESE) 22:49:26 435.175 FM
UKube-1 29 Aug 22:45:04 22:49:00 34° 262° (W) 22:52:58 145.840 MHz, 145.915 MHz
Oscar 11 29 Aug 22:52:03 22:56:14 48° 261° (W) 23:00:27 145.825 FM, Beacon 2401.500 USB
FUNcube-1 29 Aug 23:14:44 23:18:52 75° 258° (WSW) 23:23:06 145.950 - 145.970 MHz USB
HO-68 29 Aug 23:27:57 23:31:46 15° 268° (W) 23:35:36 435.675 MHz FM
Saudisat 1A 29 Aug 23:44:47 23:49:07 59° 301° (WNW) 23:53:29 436.775 MHz
MaSat-1 30 Aug 00:04:57 00:09:26 89° 252° (WSW) 00:13:15 437.345 MHz
KITSAT 1 30 Aug 00:31:03 00:39:09 84° 297° (WNW) 00:47:18 435.175 FM
Sapphire 30 Aug 01:58:18 02:01:17 15° 48° (NE) 02:04:15 437.095 MHz 1200 baud AX-25 AFSK
PCSat 30 Aug 02:26:45 02:31:19 27° 55° (NE) 02:35:51 145.825 MHz
KITSAT 1 30 Aug 02:30:19 02:35:45 19° 318° (NW) 02:41:12 435.175 FM
Oscar 19 30 Aug 02:36:09 02:41:08 45° 99° (E) 02:46:04 437.125 CW, 437.150 USB
JAS-1B 30 Aug 02:38:20 02:42:35 18° 90° (E) 02:46:32 435.800 - 435.900 CW/SSB
ITAMSAT 1 30 Aug 03:06:29 03:11:16 37° 98° (E) 03:16:02 435.822 SSB
Oscar 16 30 Aug 03:10:43 03:15:55 78° 285° (WNW) 03:21:06 437.025 USB, Beacon 2401.1428
AO-Echo 30 Aug 03:11:05 03:15:35 45° 100° (E) 03:20:06 ?
TMSAT-1 30 Aug 03:12:48 03:14:58 12° 91° (E) 03:17:08 436.925 FM
Uribyol 2 30 Aug 03:16:30 03:21:33 50° 100° (E) 03:26:35 436.500 FM
AO-27 30 Aug 03:34:58 03:40:10 75° 103° (ESE) 03:45:21 436.795 MHz FM
Sapphire 30 Aug 03:39:52 03:45:18 77° 246° (WSW) 03:50:41 437.095 MHz 1200 baud AX-25 AFSK
SO-50 30 Aug 03:42:18 03:46:02 27° 111° (ESE) 03:49:49 436.795 FM
Gurwin Techsat 1B 30 Aug 03:57:56 04:03:07 53° 100° (E) 04:08:17 435.225 FM
PCSat 30 Aug 04:09:49 04:14:46 37° 251° (WSW) 04:19:40 145.825 MHz
Oscar 19 30 Aug 04:16:30 04:20:05 19° 294° (WNW) 04:23:40 437.125 CW, 437.150 USB
OPAL 30 Aug 04:21:58 04:26:23 32° 67° (ENE) 04:30:53 ?
JAS-1B 30 Aug 04:27:22 04:33:49 52° 290° (WNW) 04:39:27 435.800 - 435.900 CW/SSB
ITAMSAT 1 30 Aug 04:46:31 04:50:30 23° 293° (WNW) 04:54:29 435.822 SSB
AO-7 30 Aug 04:49:37 04:56:37 30° 97° (E) 05:03:33 29.400 - 29.500 MHz
TMSAT-1 30 Aug 04:50:02 04:55:17 66° 286° (WNW) 05:00:31 436.925 FM
AO-Echo 30 Aug 04:51:14 04:53:58 16° 294° (WNW) 04:56:43 ?
Uribyol 2 30 Aug 04:57:16 05:00:34 17° 295° (WNW) 05:03:53 436.500 FM
AO-27 30 Aug 05:17:11 05:19:00 12° 298° (WNW) 05:20:49 436.795 MHz FM
SO-50 30 Aug 05:22:40 05:26:29 27° 308° (NW) 05:30:22 436.795 FM
Uosat F 30 Aug 05:39:06 05:44:06 69° 102° (ESE) 05:49:04 435.120 FM
Gurwin Techsat 1B 30 Aug 05:39:18 05:42:36 17° 295° (WNW) 05:45:54 435.225 FM
UOSAT-12 30 Aug 05:45:57 05:50:12 39° 114° (ESE) 05:54:33 437.025 FM, 437.400 FM
Oscar 10/S400 30 Aug 05:52:31 06:59:25 21° 255° (WSW) 09:18:23 145.825 - 145.975 CW/USB, Beacon 145.810 USB
OPAL 30 Aug 06:01:06 06:05:14 26° 262° (W) 06:09:26 ?
STRAND 1 30 Aug 06:07:06 06:09:11 13° 63° (ENE) 06:11:15 ?
AO-7 30 Aug 06:41:39 06:49:36 54° 293° (WNW) 06:57:33 29.400 - 29.500 MHz
RS-15 30 Aug 07:00:24 07:09:04 27° 104° (ESE) 07:17:33 29.354 - 29.394 USB, Beacon 29.352 USB
Hamsat 30 Aug 07:16:36 07:20:58 75° 101° (ESE) 07:25:15 145.90 MHz
Uosat F 30 Aug 07:20:21 07:22:15 12° 297° (WNW) 07:24:10 435.120 FM
UOSAT-12 30 Aug 07:26:57 07:30:29 21° 310° (NW) 07:34:04 437.025 FM, 437.400 FM
JAS-2 30 Aug 07:29:56 07:35:13 82° 103° (ESE) 07:40:59 435.800 - 435.900 CW/SSB, 435.910 FM
STRAND 1 30 Aug 07:42:40 07:47:44 69° 258° (WSW) 07:52:50 ?
Saudisat 1A 30 Aug 08:14:40 08:18:51 40° 56° (NE) 08:22:59 436.775 MHz
KITSAT 1 30 Aug 08:28:40 08:35:25 28° 49° (NE) 08:42:07 435.175 FM
SO-67 30 Aug 08:38:29 08:41:56 77° 283° (WNW) 08:45:23 435.3500 MHz FM
RS-15 30 Aug 09:09:19 09:20:24 71° 302° (WNW) 09:31:19 29.354 - 29.394 USB, Beacon 29.352 USB
HO-68 30 Aug 09:09:38 09:14:03 17° 93° (E) 09:18:27 435.675 MHz FM
JAS-2 30 Aug 09:19:08 09:19:44 10° 297° (WNW) 09:20:20 435.800 - 435.900 CW/SSB, 435.910 FM
